Regional Weather Roundup
Issued by NWS

Home | Current Version | Previous Version | Graphics & Text | Print | Product List | Glossary On
Versions: 1 2 3 4 5 6 7 8 9 10 11 12 13 14 15 16 17 18 19 20 21 22 23 24 25 26 27 28 29 30 31 32 33 34 35 36 37 38 39 40 41 42 43 44 45 46 47 48 49 50
000
ASUS43 KTOP 032008
RWRKS

WEATHER ROUNDUP FOR KANSAS
NATIONAL WEATHER SERVICE GOODLAND KS
300 PM CDT MON AUG 03 2015

NOTE:  "FAIR" INDICATES FEW OR NO CLOUDS BELOW 12,000 FEET WITH NO
SIGNIFICANT WEATHER AND/OR OBSTRUCTIONS TO VISIBILITY.

KSZ001>006-013>018-027>032-041>047-032100-
NORTHWEST KANSAS

CITY           SKY/WX    TMP DP  RH WIND       PRES   REMARKS
GOODLAND       MOSUNNY   90  56  31 SE14G22   30.00F
HAYS           CLOUDY    91  64  40 E5        29.93F
HILL CITY      PTSUNNY   95  64  35 S13       29.94F HX  97
RUSSELL        PTSUNNY   92  67  43 E6        29.91F HX  95
$$

KSZ061>065-074>080-084>089-032100-
SOUTHWEST KANSAS

CITY           SKY/WX    TMP DP  RH WIND       PRES   REMARKS
DODGE CITY     MOSUNNY   90  62  39 S9G18     29.97F
ELKHART          N/A     88  66  48 S10         N/A
GARDEN CITY    MOSUNNY   89  61  38 SE10      29.96F
GREAT BEND     PTSUNNY   91  66  43 SE9G17    29.92S
LIBERAL        SUNNY     90  64  43 S8G21     29.96F
PRATT          PTSUNNY   90  64  43 S7        29.96S
$$

KSZ066>073-081>083-090>101-032100-
SOUTHEAST KANSAS

CITY           SKY/WX    TMP DP  RH WIND       PRES   REMARKS
CHANUTE        PTSUNNY   93  64  38 W3        29.94F
COFFEYVILLE    MOSUNNY   93  65  39 SW7       29.93F HX  95
HUTCHINSON     MOSUNNY   92  69  47 S10       29.94R HX  97
MEDICINE LODGE   N/A     91  66  43 S10G17    29.92F
NEWTON         MOSUNNY   91  68  46 S7        29.97S HX  95
PARSONS        PTSUNNY   93  67  42 SW8       29.95F HX  96
WICHITA INTL   PTSUNNY   91  70  49 S8        29.94R HX  96
WICHITA JABRA  PTSUNNY   91  69  48 VRB7      29.94S HX  96
WICHITA MCCONL PTSUNNY   89  68  50 S6        29.95R
WINFIELD       PTSUNNY   90  72  55 S8        29.95S HX  97
$$

KSZ007>012-019>026-033>040-048>060-102>105-032100-
NORTHEAST KANSAS

CITY           SKY/WX    TMP DP  RH WIND       PRES   REMARKS
CONCORDIA      SUNNY     90  72  55 E6        29.93F HX  97
EMPORIA        PTSUNNY   92  67  43 S6        29.93F HX  95
LAWRENCE       SUNNY     92  71  50 E5        29.91F HX  98
MANHATTAN      SUNNY     94  69  44 VRB6      29.90F HX  99
MARYSVILLE     FAIR      88  75  66 SE5       29.93F HX  97
OLATHE IND     SUNNY     92  68  45 W6        29.93F HX  96
OLATHE EXE     SUNNY     92  67  43 NW8       29.92F HX  95
SALINA         MOSUNNY   95  69  42 S6        29.91F HX 100
TOPEKA BILLARD SUNNY     92  73  53 NE5       29.91F HX 100
TOPEKA FORBES  SUNNY     94  68  42 SW8       29.92F HX  98
$$


USA.gov is the U.S. government's official web portal to all federal, state and local government web resources and services.